• In Deutschland
  • Länderverzeichnis
  • Für 7 Tage
  • Wassertemperatur
  • Satellitenkarten
  • Wetterkarte
  • Widgets
  • user-avatar
    Anmelden

    Stündliche Wetter Kitzingen

    Heute, 19 Februar, Montag

    Zeit Temperatur Niederschläge Wind Luftdruck Luftfeuchtigkeit
    00:00 0°C° 0 mm 1 m/S 748 mmHg 87%
    01:00 -1°C° 0 mm 1 m/S 748 mmHg 89%
    02:00 -1°C° 0 mm 1 m/S 748 mmHg 89%
    03:00 -1°C° 0 mm 1 m/S 747 mmHg 89%
    04:00 -1°C° 0 mm 1 m/S 747 mmHg 89%
    05:00 -1°C° 0 mm 1 m/S 747 mmHg 89%
    06:00 -1°C° 0 mm 1 m/S 746 mmHg 89%
    07:00 -1°C° 0 mm 1 m/S 746 mmHg 88%
    08:00 0°C° 0 mm 1 m/S 746 mmHg 83%
    09:00 0°C° 0 mm 1 m/S 746 mmHg 77%
    10:00 +1°C° 0 mm 1 m/S 746 mmHg 72%
    11:00 +2°C° 0 mm 1 m/S 745 mmHg 67%
    12:00 +3°C° 0 mm 1 m/S 745 mmHg 62%
    13:00 +4°C° 0 mm 1 m/S 745 mmHg 58%
    14:00 +4°C° 0 mm 1 m/S 744 mmHg 58%
    15:00 +4°C° 0 mm 1 m/S 744 mmHg 59%
    16:00 +4°C° 0 mm 1 m/S 743 mmHg 60%
    17:00 +3°C° 0 mm 1 m/S 743 mmHg 64%
    18:00 +2°C° 0 mm 1 m/S 743 mmHg 68%
    19:00 +1°C° 0 mm 1 m/S 743 mmHg 73%
    20:00 +1°C° 0 mm 1 m/S 743 mmHg 74%
    21:00 +1°C° 0 mm 1 m/S 743 mmHg 75%
    22:00 +1°C° 0 mm 1 m/S 743 mmHg 77%
    23:00 0°C° 0 mm 1 m/S 743 mmHg 77%

    Morgen, 20 Februar, Dienstag

    Zeit Temperatur Niederschläge Wind Luftdruck Luftfeuchtigkeit
    00:00 0°C° 0 mm 1 m/S 742 mmHg 78%
    01:00 0°C° 0 mm 1 m/S 742 mmHg 79%
    02:00 0°C° 0 mm 1 m/S 742 mmHg 80%
    03:00 0°C° 0 mm 1 m/S 742 mmHg 81%
    04:00 -1°C° 0 mm 1 m/S 742 mmHg 82%
    05:00 -1°C° 0 mm 1 m/S 742 mmHg 82%
    06:00 -1°C° 0 mm 1 m/S 742 mmHg 83%
    07:00 -1°C° 0 mm 1 m/S 742 mmHg 84%
    08:00 0°C° 0 mm 1 m/S 742 mmHg 79%
    09:00 +1°C° 0 mm 1 m/S 742 mmHg 74%
    10:00 +2°C° 0 mm 1 m/S 742 mmHg 69%
    11:00 +2°C° 0 mm 2 m/S 742 mmHg 66%
    12:00 +3°C° 0 mm 2 m/S 742 mmHg 62%
    13:00 +4°C° 0 mm 2 m/S 742 mmHg 58%
    14:00 +3°C° 0 mm 2 m/S 742 mmHg 60%
    15:00 +3°C° 0 mm 2 m/S 742 mmHg 62%
    16:00 +3°C° 0 mm 2 m/S 742 mmHg 64%
    17:00 +2°C° 0 mm 2 m/S 742 mmHg 68%
    18:00 +2°C° 0 mm 2 m/S 743 mmHg 73%
    19:00 +1°C° 0 mm 2 m/S 743 mmHg 78%
    20:00 -1°C° 0 mm 2 m/S 743 mmHg 80%
    21:00 -1°C° 0 mm 2 m/S 744 mmHg 81%
    22:00 -1°C° 0 mm 2 m/S 744 mmHg 83%
    23:00 -1°C° 0 mm 2 m/S 744 mmHg 85%

    übermorgen, 21 Februar, Mittwoch

    Zeit Temperatur Niederschläge Wind Luftdruck Luftfeuchtigkeit
    00:00 -2°C° 0 mm 2 m/S 744 mmHg 87%
    01:00 -2°C° 0 mm 2 m/S 745 mmHg 89%
    02:00 -2°C° 0 mm 2 m/S 745 mmHg 88%
    03:00 -3°C° 0 mm 2 m/S 745 mmHg 88%
    04:00 -3°C° 0 mm 2 m/S 745 mmHg 87%
    05:00 -4°C° 0 mm 3 m/S 745 mmHg 84%
    06:00 -4°C° 0 mm 3 m/S 745 mmHg 82%
    07:00 -4°C° 0 mm 3 m/S 745 mmHg 80%
    08:00 -2°C° 0 mm 3 m/S 746 mmHg 74%
    09:00 -1°C° 0 mm 3 m/S 746 mmHg 67%
    10:00 -1°C° 0 mm 4 m/S 746 mmHg 61%
    11:00 0°C° 0 mm 4 m/S 746 mmHg 57%
    12:00 +1°C° 0 mm 4 m/S 746 mmHg 53%
    13:00 +3°C° 0 mm 4 m/S 745 mmHg 49%
    14:00 +3°C° 0 mm 4 m/S 745 mmHg 51%
    15:00 +3°C° 0 mm 4 m/S 745 mmHg 52%
    16:00 +3°C° 0 mm 4 m/S 744 mmHg 54%
    17:00 0°C° 0 mm 4 m/S 745 mmHg 59%
    18:00 -1°C° 0 mm 4 m/S 745 mmHg 64%
    19:00 -2°C° 0 mm 4 m/S 745 mmHg 70%
    20:00 -2°C° 0 mm 4 m/S 745 mmHg 70%
    21:00 -3°C° 0 mm 4 m/S 745 mmHg 71%
    22:00 -3°C° 0 mm 4 m/S 745 mmHg 71%
    23:00 -3°C° 0 mm 4 m/S 745 mmHg 72%

    22 Februar, Donnerstag

    Zeit Temperatur Niederschläge Wind Luftdruck Luftfeuchtigkeit
    00:00 -3°C° 0 mm 4 m/S 745 mmHg 72%
    01:00 -3°C° 0 mm 4 m/S 744 mmHg 72%
    02:00 -3°C° 0 mm 4 m/S 744 mmHg 72%
    03:00 -4°C° 0 mm 4 m/S 744 mmHg 72%
    04:00 -5°C° 0 mm 5 m/S 744 mmHg 72%
    05:00 -5°C° 0 mm 5 m/S 744 mmHg 72%
    06:00 -5°C° 0 mm 5 m/S 744 mmHg 71%
    07:00 -5°C° 0 mm 5 m/S 744 mmHg 70%
    08:00 -4°C° 0 mm 6 m/S 744 mmHg 66%
    09:00 -4°C° 0 mm 6 m/S 744 mmHg 62%
    10:00 -3°C° 0 mm 7 m/S 744 mmHg 58%
    11:00 -2°C° 0 mm 7 m/S 744 mmHg 55%
    12:00 -1°C° 0 mm 7 m/S 743 mmHg 51%
    13:00 -1°C° 0 mm 7 m/S 743 mmHg 48%
    14:00 -1°C° 0 mm 7 m/S 743 mmHg 49%
    15:00 -1°C° 0 mm 7 m/S 743 mmHg 49%
    16:00 -1°C° 0 mm 7 m/S 743 mmHg 49%
    17:00 -2°C° 0 mm 6 m/S 743 mmHg 52%
    18:00 -3°C° 0 mm 6 m/S 743 mmHg 55%
    19:00 -4°C° 0 mm 6 m/S 743 mmHg 58%
    20:00 -4°C° 0 mm 6 m/S 743 mmHg 58%
    21:00 -4°C° 0 mm 6 m/S 743 mmHg 58%
    22:00 -5°C° 0 mm 6 m/S 743 mmHg 58%
    23:00 -5°C° 0 mm 6 m/S 743 mmHg 58%

    23 Februar, Freitag

    Zeit Temperatur Niederschläge Wind Luftdruck Luftfeuchtigkeit
    00:00 -5°C° 0 mm 6 m/S 743 mmHg 58%
    01:00 -5°C° 0 mm 6 m/S 743 mmHg 58%
    02:00 -5°C° 0 mm 6 m/S 743 mmHg 58%
    03:00 -5°C° 0 mm 6 m/S 743 mmHg 58%
    04:00 -5°C° 0 mm 6 m/S 743 mmHg 58%
    05:00 -5°C° 0 mm 6 m/S 743 mmHg 58%
    06:00 -6°C° 0 mm 6 m/S 743 mmHg 59%
    07:00 -6°C° 0 mm 6 m/S 743 mmHg 59%
    08:00 -5°C° 0 mm 6 m/S 743 mmHg 56%
    09:00 -4°C° 0 mm 6 m/S 744 mmHg 54%
    10:00 -4°C° 0 mm 6 m/S 744 mmHg 52%
    11:00 -3°C° 0 mm 6 m/S 744 mmHg 48%
    12:00 -2°C° 0 mm 6 m/S 744 mmHg 45%
    13:00 -1°C° 0 mm 6 m/S 744 mmHg 42%
    14:00 -1°C° 0 mm 7 m/S 744 mmHg 41%
    15:00 -1°C° 0 mm 7 m/S 744 mmHg 41%
    16:00 -1°C° 0 mm 7 m/S 744 mmHg 41%
    17:00 -2°C° 0 mm 6 m/S 745 mmHg 44%
    18:00 -3°C° 0 mm 6 m/S 745 mmHg 47%
    19:00 -4°C° 0 mm 6 m/S 745 mmHg 50%
    20:00 -5°C° 0 mm 6 m/S 746 mmHg 49%
    21:00 -5°C° 0 mm 6 m/S 746 mmHg 48%
    22:00 -6°C° 0 mm 6 m/S 747 mmHg 48%
    23:00 -6°C° 0 mm 5 m/S 747 mmHg 46%

    24 Februar, Samstag

    Zeit Temperatur Niederschläge Wind Luftdruck Luftfeuchtigkeit
    00:00 -6°C° 0 mm 5 m/S 747 mmHg 45%
    01:00 -6°C° 0 mm 5 m/S 748 mmHg 43%
    02:00 -7°C° 0 mm 5 m/S 748 mmHg 42%
    03:00 -7°C° 0 mm 5 m/S 748 mmHg 40%
    04:00 -7°C° 0 mm 5 m/S 748 mmHg 39%
    05:00 -7°C° 0 mm 5 m/S 749 mmHg 39%
    06:00 -7°C° 0 mm 5 m/S 749 mmHg 38%
    07:00 -7°C° 0 mm 5 m/S 750 mmHg 38%
    08:00 -8°C° 0 mm 6 m/S 750 mmHg 36%
    09:00 -6°C° 0 mm 6 m/S 751 mmHg 35%
    10:00 -5°C° 0 mm 6 m/S 751 mmHg 33%
    11:00 -4°C° 0 mm 6 m/S 751 mmHg 31%
    12:00 -3°C° 0 mm 6 m/S 751 mmHg 29%
    13:00 -3°C° 0 mm 6 m/S 751 mmHg 26%
    14:00 -3°C° 0 mm 6 m/S 751 mmHg 28%
    15:00 -3°C° 0 mm 6 m/S 750 mmHg 30%
    16:00 -3°C° 0 mm 6 m/S 750 mmHg 32%
    17:00 -4°C° 0 mm 6 m/S 750 mmHg 36%
    18:00 -5°C° 0 mm 5 m/S 750 mmHg 41%
    19:00 -6°C° 0 mm 5 m/S 750 mmHg 45%
    20:00 -6°C° 0 mm 5 m/S 751 mmHg 46%
    21:00 -6°C° 0 mm 5 m/S 751 mmHg 46%
    22:00 -7°C° 0 mm 4 m/S 751 mmHg 47%
    23:00 -7°C° 0 mm 4 m/S 750 mmHg 49%
    Mehr zeigen